When you browse on this site, cookies collect data to enhance your experience and personalize the content and advertising you see.
Visit our Privacy Policy to learn more. By continuing to use the site, you agree to this use of cookies and data.
  • In United Kingdom
  • List of Countries
  • For 7 days
  • Water Temperature
  • Satellite Maps
  • Weather Map
  • Weather Widgets
  • user-avatar
    Login

    Hourly Weather Bogota

    Today, 25 June, Tuesday

    Time Temperature Precipitation Wind Pressure Humidity
    00:00 +10°C° 0 mm 0 mps 548 mmHg 91%
    01:00 +10°C° 0 mm 0 mps 548 mmHg 91%
    02:00 +9°C° 0 mm 0 mps 547 mmHg 91%
    03:00 +9°C° 0 mm 0 mps 547 mmHg 91%
    04:00 +8°C° 0 mm 0 mps 546 mmHg 91%
    05:00 +9°C° 0 mm 0 mps 547 mmHg 90%
    06:00 +9°C° 0 mm 0 mps 547 mmHg 88%
    07:00 +10°C° 0 mm 0 mps 548 mmHg 87%
    08:00 +12°C° 0 mm 1 mps 549 mmHg 84%
    09:00 +14°C° 0 mm 1 mps 550 mmHg 80%
    10:00 +15°C° 0 mm 1 mps 550 mmHg 77%
    11:00 +16°C° 0.4 mm 1 mps 550 mmHg 74%
    12:00 +18°C° 0.4 mm 1 mps 550 mmHg 71%
    13:00 +18°C° 0.4 mm 2 mps 550 mmHg 68%
    14:00 +17°C° 0.6 mm 2 mps 550 mmHg 72%
    15:00 +18°C° 0.6 mm 1 mps 549 mmHg 76%
    16:00 +16°C° 0.6 mm 1 mps 548 mmHg 80%
    17:00 +15°C° 0.5 mm 1 mps 548 mmHg 84%
    18:00 +13°C° 0.5 mm 1 mps 547 mmHg 88%
    19:00 +11°C° 0.5 mm 0 mps 547 mmHg 92%
    20:00 +11°C° 0.1 mm 0 mps 547 mmHg 91%
    21:00 +10°C° 0.1 mm 0 mps 547 mmHg 90%
    22:00 +10°C° 0.1 mm 0 mps 548 mmHg 89%
    23:00 +10°C° 0 mm 0 mps 547 mmHg 88%

    Tomorrow, 26 June, Wednesday

    Time Temperature Precipitation Wind Pressure Humidity
    00:00 +11°C° 0 mm 1 mps 547 mmHg 88%
    01:00 +11°C° 0 mm 1 mps 547 mmHg 87%
    02:00 +11°C° 0 mm 1 mps 547 mmHg 88%
    03:00 +10°C° 0 mm 1 mps 547 mmHg 89%
    04:00 +10°C° 0 mm 1 mps 546 mmHg 89%
    05:00 +11°C° 0 mm 1 mps 547 mmHg 88%
    06:00 +11°C° 0 mm 1 mps 547 mmHg 87%
    07:00 +12°C° 0 mm 1 mps 548 mmHg 86%
    08:00 +14°C° 0 mm 1 mps 549 mmHg 78%
    09:00 +16°C° 0 mm 1 mps 550 mmHg 69%
    10:00 +19°C° 0 mm 1 mps 551 mmHg 60%
    11:00 +19°C° 0.3 mm 1 mps 551 mmHg 61%
    12:00 +20°C° 0.3 mm 1 mps 551 mmHg 62%
    13:00 +19°C° 0.3 mm 2 mps 550 mmHg 62%
    14:00 +18°C° 0.6 mm 2 mps 549 mmHg 66%
    15:00 +18°C° 0.6 mm 2 mps 548 mmHg 70%
    16:00 +17°C° 0.6 mm 2 mps 547 mmHg 74%
    17:00 +16°C° 0.5 mm 1 mps 547 mmHg 79%
    18:00 +14°C° 0.5 mm 1 mps 546 mmHg 85%
    19:00 +12°C° 0.5 mm 1 mps 546 mmHg 90%
    20:00 +12°C° 0 mm 1 mps 546 mmHg 90%
    21:00 +11°C° 0 mm 1 mps 547 mmHg 90%
    22:00 +11°C° 0 mm 1 mps 547 mmHg 90%
    23:00 +11°C° 0 mm 1 mps 547 mmHg 90%

    Day after tomorrow, 27 June, Thursday

    Time Temperature Precipitation Wind Pressure Humidity
    00:00 +10°C° 0 mm 1 mps 546 mmHg 90%
    01:00 +10°C° 0 mm 1 mps 546 mmHg 90%
    02:00 +10°C° 0 mm 1 mps 546 mmHg 89%
    03:00 +10°C° 0 mm 1 mps 545 mmHg 87%
    04:00 +9°C° 0 mm 1 mps 545 mmHg 85%
    05:00 +9°C° 0 mm 1 mps 546 mmHg 82%
    06:00 +10°C° 0 mm 1 mps 546 mmHg 78%
    07:00 +10°C° 0 mm 1 mps 547 mmHg 74%
    08:00 +12°C° 0 mm 2 mps 548 mmHg 64%
    09:00 +15°C° 0 mm 2 mps 549 mmHg 53%
    10:00 +17°C° 0 mm 2 mps 551 mmHg 43%
    11:00 +18°C° 0 mm 2 mps 550 mmHg 43%
    12:00 +19°C° 0 mm 2 mps 550 mmHg 44%
    13:00 +20°C° 0 mm 2 mps 550 mmHg 44%
    14:00 +19°C° 0.1 mm 2 mps 549 mmHg 49%
    15:00 +18°C° 0.1 mm 2 mps 549 mmHg 55%
    16:00 +18°C° 0.1 mm 2 mps 548 mmHg 61%
    17:00 +16°C° 0.1 mm 2 mps 547 mmHg 70%
    18:00 +14°C° 0.1 mm 1 mps 547 mmHg 80%
    19:00 +12°C° 0.1 mm 1 mps 546 mmHg 89%
    20:00 +11°C° 0 mm 1 mps 546 mmHg 87%
    21:00 +11°C° 0 mm 1 mps 547 mmHg 85%
    22:00 +10°C° 0 mm 1 mps 547 mmHg 82%
    23:00 +10°C° 0 mm 1 mps 546 mmHg 78%

    28 June, Friday

    Time Temperature Precipitation Wind Pressure Humidity
    00:00 +9°C° 0 mm 1 mps 546 mmHg 74%
    01:00 +9°C° 0 mm 1 mps 546 mmHg 70%
    02:00 +9°C° 0 mm 1 mps 545 mmHg 69%
    03:00 +8°C° 0 mm 1 mps 545 mmHg 68%
    04:00 +8°C° 0 mm 1 mps 545 mmHg 67%
    05:00 +9°C° 0 mm 1 mps 546 mmHg 67%
    06:00 +9°C° 0 mm 1 mps 546 mmHg 67%
    07:00 +10°C° 0 mm 1 mps 547 mmHg 67%
    08:00 +12°C° 0 mm 1 mps 548 mmHg 62%
    09:00 +14°C° 0 mm 1 mps 550 mmHg 57%
    10:00 +18°C° 0 mm 1 mps 551 mmHg 52%
    11:00 +17°C° 0 mm 2 mps 551 mmHg 53%
    12:00 +18°C° 0 mm 2 mps 550 mmHg 54%
    13:00 +18°C° 0 mm 2 mps 550 mmHg 55%
    14:00 +18°C° 0.1 mm 2 mps 549 mmHg 60%
    15:00 +17°C° 0.1 mm 2 mps 549 mmHg 65%
    16:00 +18°C° 0.1 mm 1 mps 548 mmHg 69%
    17:00 +15°C° 0.1 mm 1 mps 547 mmHg 76%
    18:00 +13°C° 0.1 mm 1 mps 547 mmHg 83%
    19:00 +12°C° 0.1 mm 1 mps 546 mmHg 89%
    20:00 +11°C° 0 mm 1 mps 547 mmHg 89%
    21:00 +11°C° 0 mm 1 mps 547 mmHg 89%
    22:00 +11°C° 0 mm 1 mps 547 mmHg 89%
    23:00 +11°C° 0.2 mm 1 mps 547 mmHg 89%

    29 June, Saturday

    Time Temperature Precipitation Wind Pressure Humidity
    00:00 +11°C° 0.2 mm 1 mps 547 mmHg 89%
    01:00 +11°C° 0.2 mm 1 mps 547 mmHg 90%
    02:00 +11°C° 0.7 mm 1 mps 547 mmHg 91%
    03:00 +11°C° 0.7 mm 1 mps 547 mmHg 91%
    04:00 +11°C° 0.7 mm 1 mps 547 mmHg 92%
    05:00 +11°C° 0.6 mm 1 mps 547 mmHg 92%
    06:00 +11°C° 0.6 mm 1 mps 547 mmHg 92%
    07:00 +11°C° 0.6 mm 1 mps 547 mmHg 92%
    08:00 +13°C° 0.1 mm 1 mps 548 mmHg 87%
    09:00 +14°C° 0.1 mm 1 mps 549 mmHg 82%
    10:00 +15°C° 0.1 mm 1 mps 550 mmHg 76%
    11:00 +15°C° 0.4 mm 1 mps 549 mmHg 78%
    12:00 +15°C° 0.4 mm 1 mps 549 mmHg 79%
    13:00 +15°C° 0.4 mm 2 mps 548 mmHg 80%
    14:00 +15°C° 0.3 mm 1 mps 548 mmHg 79%
    15:00 +15°C° 0.3 mm 1 mps 548 mmHg 77%
    16:00 +15°C° 0.3 mm 1 mps 547 mmHg 76%
    17:00 +14°C° 0.2 mm 1 mps 547 mmHg 80%
    18:00 +13°C° 0.2 mm 1 mps 547 mmHg 85%
    19:00 +12°C° 0.2 mm 1 mps 546 mmHg 89%
    20:00 +12°C° 0 mm 1 mps 547 mmHg 88%
    21:00 +12°C° 0 mm 1 mps 547 mmHg 86%
    22:00 +12°C° 0 mm 1 mps 548 mmHg 85%
    23:00 +12°C° 0.2 mm 1 mps 548 mmHg 86%

    30 June, Sunday

    Time Temperature Precipitation Wind Pressure Humidity
    00:00 +12°C° 0.2 mm 1 mps 547 mmHg 87%
    01:00 +12°C° 0.2 mm 1 mps 547 mmHg 88%
    02:00 +11°C° 0.1 mm 1 mps 547 mmHg 89%
    03:00 +11°C° 0.1 mm 1 mps 546 mmHg 90%
    04:00 +11°C° 0.1 mm 1 mps 546 mmHg 91%
    05:00 +11°C° 0.2 mm 1 mps 547 mmHg 91%
    06:00 +11°C° 0.2 mm 1 mps 547 mmHg 91%
    07:00 +11°C° 0.2 mm 1 mps 548 mmHg 92%
    08:00 +12°C° 0.3 mm 1 mps 548 mmHg 91%
    09:00 +12°C° 0.3 mm 1 mps 548 mmHg 90%
    10:00 +12°C° 0.3 mm 1 mps 548 mmHg 90%
    11:00 +13°C° 0.1 mm 1 mps 548 mmHg 85%
    12:00 +14°C° 0.1 mm 1 mps 548 mmHg 80%
    13:00 +15°C° 0.1 mm 2 mps 549 mmHg 75%
    14:00 +15°C° 0.3 mm 2 mps 548 mmHg 79%
    15:00 +14°C° 0.3 mm 1 mps 547 mmHg 83%
    16:00 +13°C° 0.3 mm 1 mps 546 mmHg 86%
    17:00 +13°C° 0.1 mm 1 mps 546 mmHg 87%
    18:00 +12°C° 0.1 mm 1 mps 547 mmHg 88%
    19:00 +12°C° 0.1 mm 1 mps 547 mmHg 89%
    20:00 +11°C° 0 mm 1 mps 547 mmHg 89%
    21:00 +11°C° 0 mm 1 mps 547 mmHg 89%
    22:00 +11°C° 0 mm 1 mps 547 mmHg 89%
    23:00 +10°C° 0 mm 1 mps 547 mmHg 90%
    Show more